This demonstration page uses our WeatherBlox Daily Observations layout. Learn more.

Left ArrowRight Arrow

39.92423, -83.80882

Hourly Observations for August 2, 2021

Temp ( °F °C ) Dew Point ( °F °C ) Humidity (%) Winds ( mph kmh ) Pressure ( in mb ) Visibility ( mi km ) Precip ( " mm )
12:56 am 00:56 Clear 60 15.6 58 14.4 93 93 N 6 9 30.06 1018 9 14 N/A
1:56 am 01:56 Clear 58 14.4 58 14.4 100 100 N 7 11 30.07 1018 8 13 N/A
2:56 am 02:56 Clear 58 14.4 58 14.4 100 100 N 7 11 30.07 1018 10 16 N/A
3:56 am 03:56 Clear 57 13.9 57 13.9 100 100 N N/A 30.08 1019 10 16 N/A
4:56 am 04:56 Clear 55 13 N/A N/A NNW 3 6 30.10 1019 10 16 N/A
5:56 am 05:56 Clear 55 13 N/A N/A N N/A 30.11 1020 10 16 N/A
6:56 am 06:56 Sunny 54 12 N/A N/A N N/A 30.12 1020 9 14 N/A
7:56 am 07:56 Sunny 57 14 N/A N/A NNE 5 7 30.14 1021 10 16 N/A
8:52 am 08:52 Mostly Sunny 63 17 63 17 100 100 NE 8 13 30.14 1021 10 16 N/A
8:56 am 08:56 Sunny 64 17.8 62 16.7 93 93 ENE 7 11 30.15 1021 10 16 N/A
9:42 am 09:42 Mostly Sunny 66 19 61 16 83 83 NE 10 17 30.14 1021 10 16 N/A
9:56 am 09:56 Sunny 67 19.4 60 15.6 79 79 ENE 10 17 30.16 1021 10 16 N/A
10:05 am 10:05 Mostly Sunny 66 19 61 16 83 83 ENE 9 15 30.15 1021 10 16 N/A
10:56 am 10:56 Partly Cloudy 68 20 59 15 73 73 NE 7 11 30.16 1021 10 16 N/A
11:07 am 11:07 Mostly Cloudy 70 21 59 15 69 69 E 8 13 30.13 1020 10 16 N/A
11:40 am 11:40 Cloudy 72 22 59 15 65 65 VRB 7 11 30.12 1020 10 16 N/A
11:56 am 11:56 Mostly Cloudy 72 22.2 59 15 64 64 ENE 13 20 30.15 1021 10 16 N/A
12:56 pm 12:56 Mostly Cloudy 72 22.2 58 14.4 61 61 E 7 11 30.15 1021 9 14 N/A
1:56 pm 13:56 Mostly Cloudy 74 23.3 58 14.4 57 57 NE 10 17 30.14 1021 10 16 N/A
2:56 pm 14:56 Mostly Cloudy 73 22.8 56 13.3 55 55 ENE 9 15 30.13 1020 10 16 N/A
3:56 pm 15:56 Partly Cloudy 74 23.3 56 13.3 54 54 E 7 11 30.12 1020 10 16 N/A
4:56 pm 16:56 Partly Cloudy 75 23.9 54 12.2 48 48 ESE 5 7 30.10 1019 10 16 N/A
5:56 pm 17:56 Mostly Sunny 73 22.8 56 13.3 55 55 ENE 8 13 30.10 1019 10 16 N/A
6:56 pm 18:56 Sunny 74 23.3 54 12.2 50 50 ENE 5 7 30.10 1019 10 16 N/A
7:56 pm 19:56 Sunny 71 21.7 57 13.9 61 61 ENE 5 7 30.09 1019 10 16 N/A
8:56 pm 20:56 Mostly Cloudy 67 19.4 57 13.9 71 71 NE 5 7 30.09 1019 10 16 N/A
9:56 pm 21:56 Clear 63 17.2 61 16.1 93 93 N N/A 30.11 1020 10 16 N/A
10:56 pm 22:56 Clear 61 16.1 61 16.1 100 100 N N/A 30.12 1020 10 16 N/A
11:56 pm 23:56 Clear 59 15 59 15 100 100 NNE 5 7 30.11 1020 10 16 N/A

Powered by AerisWeather